Location: ??????
(33.3472°N, 35.4764°E)
Time: 04:12:56
(UTC+00:00)

Daily predictions for brighter satellites

Satellite Brightness Start Highest point End
(mag) Time Altitude Azimuth Time Altitude Azimuth Time Altitude Azimuth
CZ-2D R/B 3.9 00:04:29 10° N 00:06:55 23° NNW 00:06:55 23° NNW
Cosmos 2016 Rocket 4.3 00:04:55 10° N 00:10:59 59° E 00:11:23 58° E
Cosmos 2100 Rocket 4.3 00:06:09 10° N 00:11:14 59° NNW 00:11:14 59° NNW
Cosmos 2263 Rocket 4.4 00:10:58 13° SE 00:13:12 16° E 00:16:37 10° ENE
ARIANE 5 R/B 3.3 00:10:10 10° NNE 00:13:56 49° NNE 00:13:56 49° NNE
ADEOS II 2.7 00:12:10 10° NNE 00:16:09 53° NNE 00:16:09 53° NNE
Cosmos 1802 Rocket 4.0 00:11:17 10° N 00:17:02 77° NNE 00:17:02 77° NNE
SEDSat Delta rocket 4.4 00:19:11 51° SE 00:19:11 51° SE 00:24:14 10° ESE
Cosmos 2123 Rocket 3.9 00:22:00 82° E 00:22:00 82° E 00:28:14 10° N
Cosmos 1459 Rocket 4.4 00:26:18 10° NNW 00:30:57 48° NW 00:30:57 48° NW
Cosmos-2242 4.0 00:33:58 43° NE 00:33:58 43° NE 00:37:14 10° NNE
Cosmos 1331 Rocket 4.1 00:34:25 73° ENE 00:34:25 73° ENE 00:39:27 10° NNE
Cosmos 1110 Rocket 4.0 00:37:09 74° NNE 00:37:09 74° NNE 00:41:56 10° NNE
Cosmos 2227 Rocket 3.7 00:38:06 24° NW 00:38:06 24° NW 00:41:35 10° N
USA 267 4.4 00:37:30 10° SSE 00:47:35 26° WNW 00:50:16 10° NW
Cosmos 1725 Rocket 3.8 00:41:52 10° N 00:48:04 86° W 00:49:47 51° S
H-2A R/B 4.4 00:44:57 10° NE 00:48:26 25° E 00:49:57 20° SE
Cosmos 2297 Rocket 4.0 00:54:03 17° NW 00:54:03 17° NW 00:57:11 10° NNW
IDEFIX/ARIANE 42P 3.7 00:53:41 10° NNE 00:58:35 40° E 01:02:17 17° SSE
Cosmos 2151 3.6 01:00:28 10° N 01:04:35 53° E 01:06:55 24° SSE
Cosmos 1864 Rocket 4.5 00:58:59 10° NNW 01:05:10 60° W 01:06:52 45° SW
NOSS 3-4 (A) 3.8 00:59:24 10° NW 01:06:40 72° WSW 01:14:32 10° SSE
NOSS 3-4 (C) 3.8 00:59:31 10° NW 01:06:47 73° WSW 01:14:39 10° SSE
Spot 2 4.4 01:05:30 10° N 01:10:39 77° WNW 01:11:56 51° SSW
RUBIN 8/PSLV 4.4 01:10:07 10° N 01:14:24 80° WNW 01:15:01 63° SW
Okean 3 Rocket 3.5 01:17:07 10° NNW 01:21:26 59° W 01:22:03 53° SW
Cosmos 1892 2.9 01:18:02 10° N 01:21:52 71° E 01:24:23 20° SSE
Cosmos 1766 Rocket 3.4 01:19:54 10° N 01:24:23 79° W 01:27:01 24° S
OAO 1 4.5 01:23:47 37° W 01:25:51 64° SSW 01:31:16 10° ESE
PSLV R/B 3.5 01:24:35 10° N 01:28:57 85° WNW 01:31:00 31° SSW
SL-16 R/B 2.5 01:25:09 10° NW 01:30:27 43° WSW 01:35:09 13° S
CZ-2C R/B 3.4 01:38:58 10° NNE 01:43:18 42° E 01:47:41 10° S
Meteor 2-20 4.4 01:41:18 11° SSW 01:47:14 71° W 01:53:23 10° N
Cosmos 1842 Rocket 3.5 01:45:08 17° SSW 01:48:29 70° W 01:52:52 10° N
Timation 1 Rocket 4.4 01:45:11 11° SSW 01:50:58 79° ESE 01:56:59 10° NNE
ATLAS 2AS CENTAUR R/B 3.9 01:46:16 10° WNW 01:50:36 19° W 01:50:36 19° W
Cosmos 2221 2.5 01:48:36 10° S 01:52:57 85° E 01:57:21 10° N
Cosmos 1238 Rocket 2.1 01:50:09 10° N 01:53:10 70° W 01:56:32 10° S
IUS-1 SRM-2 3.3 01:52:26 23° SW 01:53:11 25° SSW 01:55:20 10° SE
PAYLOAD A 4.1 01:49:25 10° NNE 01:54:39 78° ESE 01:59:39 10° S
Cosmos 2263 Rocket 2.4 01:52:42 20° SW 01:56:33 54° WNW 02:02:08 10° N
Cosmos 371 Rocket 4.4 01:56:58 21° WSW 01:58:54 27° WNW 02:03:02 10° N
ADEOS 4.3 01:57:02 10° N 02:01:41 34° WNW 02:05:04 17° SW
Cosmos 1486 Rocket 4.2 01:56:54 10° NNW 02:02:07 77° ENE 02:07:19 10° SSE
Cosmos 1500 Rocket 3.6 02:00:27 10° N 02:04:47 81° E 02:09:05 10° S
Cosmos 1464 Rocket 4.0 01:58:33 10° N 02:04:50 86° W 02:11:08 10° S
Cosmos 1455 3.3 02:06:52 19° WSW 02:08:15 24° WNW 02:11:20 10° NNW
Meteor 2-3 Rocket 4.1 02:05:10 10° N 02:10:45 70° E 02:16:17 10° SSE
Tsikada Rocket 4.4 02:05:26 10° S 02:11:45 72° E 02:18:02 10° N
Meteor 2-2 Rocket 4.2 02:16:45 10° S 02:22:22 88° W 02:28:04 10° N
Cosmos 1818 4.1 02:18:19 10° SSW 02:23:39 62° ESE 02:29:03 10° NE
H-2A R/B 3.9 02:20:40 10° NNW 02:23:42 20° WNW 02:26:31 11° WSW
Cosmos 2285 Rocket 4.1 02:19:11 10° NNW 02:25:25 56° WSW 02:31:39 10° S
MSX 4.3 02:23:52 10° N 02:29:16 43° WNW 02:34:40 10° SW
Cosmos 1825 2.6 02:27:15 10° NNW 02:30:49 40° W 02:34:21 10° SSW
Lacrosse 5 rocket 2.6 02:29:25 10° SSW 02:33:02 38° ESE 02:36:52 10° NE
IDEFIX/ARIANE 42P 3.9 02:34:04 10° NNW 02:37:51 21° WNW 02:41:38 10° WSW
